K7LDN-13 Weather Reports


Display with metric or nautical units.
time (UTC)temp
F
wind
direction
speed
MPH
gust
MPH
rain 1hr
in
rain 24hr
in
rain mn
in
humidity
%
barometer
mb
20260508213448 75 32 17.0 19.0 0.00 0.00 0.00 21 1018.7
20260508212943 76 11 7.0 16.0 0.00 0.00 0.00 22 1018.8
20260508212440 76 5 7.0 13.0 0.00 0.00 0.00 22 1018.9
20260508211936 75 36 10.0 15.0 0.00 0.00 0.00 21 1018.9
20260508211431 75 3 12.0 23.0 0.00 0.00 0.00 21 1019.1
20260508210929 75 338 10.0 18.0 0.00 0.00 0.00 21 1019.0
20260508210426 75 31 8.0 22.0 0.00 0.00 0.00 21 1019.0
20260508205922 75 24 6.0 17.0 0.00 0.00 0.00 21 1019.0
20260508205419 75 27 9.0 15.0 0.00 0.00 0.00 21 1019.3
20260508204915 74 7 14.0 25.0 0.00 0.00 0.00 22 1019.3
20260508204413 74 7 8.0 16.0 0.00 0.00 0.00 22 1019.1
20260508203908 74 13 5.0 18.0 0.00 0.00 0.00 22 1019.0
20260508203404 76 0 13.0 16.0 0.00 0.00 0.00 22 1019.3
20260508202900 74 355 5.0 22.0 0.00 0.00 0.00 22 1019.5
20260508202357 75 2 10.0 18.0 0.00 0.00 0.00 22 1019.3
20260508201855 75 340 4.0 14.0 0.00 0.00 0.00 23 1019.3
20260508201351 74 356 11.0 17.0 0.00 0.00 0.00 23 1019.5
20260508200847 74 2 11.0 21.0 0.00 0.00 0.00 22 1019.6
20260508200345 74 20 4.0 21.0 0.00 0.00 0.00 22 1019.4
20260508195840 74 33 6.0 19.0 0.00 0.00 0.00 23 1019.5
20260508195337 74 17 3.0 18.0 0.00 0.00 0.00 23 1019.6
20260508194833 73 8 5.0 23.0 0.00 0.00 0.00 23 1019.4
20260508194331 74 44 11.0 22.0 0.00 0.00 0.00 22 1019.3
20260508193827 73 3 12.0 26.0 0.00 0.00 0.00 23 1019.6
20260508193324 73 33 8.0 21.0 0.00 0.00 0.00 23 1019.5
20260508192820 74 28 6.0 18.0 0.00 0.00 0.00 22 1019.7
20260508192317 74 3 8.0 24.0 0.00 0.00 0.00 23 1019.5
20260508191814 73 27 6.0 22.0 0.00 0.00 0.00 23 1019.7
20260508191312 73 16 11.0 25.0 0.00 0.00 0.00 23 1019.8
20260508190804 73 8 13.0 21.0 0.00 0.00 0.00 23 1019.6
20260508190259 75 5 15.0 20.0 0.00 0.00 0.00 22 1019.8
20260508185750 73 36 5.0 24.0 0.00 0.00 0.00 23 1019.7
20260508185248 73 36 5.0 24.0 0.00 0.00 0.00 23 1019.7
20260508184745 74 359 10.0 23.0 0.00 0.00 0.00 23 1019.8
20260508184242 73 338 19.0 29.0 0.00 0.00 0.00 23 1019.8
20260508183739 75 343 17.0 17.0 0.00 0.00 0.00 21 1019.6
20260508183235 73 286 2.0 5.0 0.00 0.00 0.00 24 1020.1
20260508182731 73 292 4.0 9.0 0.00 0.00 0.00 25 1019.9
20260508182228 73 206 8.0 10.0 0.00 0.00 0.00 24 1019.9
20260508181724 74 38 2.0 3.0 0.00 0.00 0.00 26 1020.1
20260508181221 73 255 2.0 4.0 0.00 0.00 0.00 25 1020.1
20260508180718 72 35 7.0 10.0 0.00 0.00 0.00 27 1020.1
20260508180215 73 20 6.0 13.0 0.00 0.00 0.00 28 1020.2
20260508175711 72 48 7.0 18.0 0.00 0.00 0.00 27 1020.2
20260508175208 72 17 6.0 13.0 0.00 0.00 0.00 28 1020.4
20260508174706 72 21 4.0 11.0 0.00 0.00 0.00 30 1020.4
20260508174202 70 348 7.0 15.0 0.00 0.00 0.00 30 1020.3
20260508173659 72 68 5.0 15.0 0.00 0.00 0.00 30 1020.4
20260508173154 71 88 7.0 13.0 0.00 0.00 0.00 31 1020.5
20260508172652 72 357 12.0 14.0 0.00 0.00 0.00 31 1020.3
20260508172149 70 30 5.0 6.0 0.00 0.00 0.00 30 1020.5
20260508171645 71 12 8.0 16.0 0.00 0.00 0.00 31 1020.5
20260508171136 71 358 4.0 11.0 0.00 0.00 0.00 31 1020.4
20260508170633 71 45 5.0 14.0 0.00 0.00 0.00 30 1020.3
20260508170131 71 59 4.0 12.0 0.00 0.00 0.00 29 1020.2
20260508165628 71 33 6.0 10.0 0.00 0.00 0.00 28 1020.3
20260508165125 70 13 4.0 11.0 0.00 0.00 0.00 28 1020.3
20260508164620 70 63 4.0 13.0 0.00 0.00 0.00 29 1020.2
20260508164117 71 64 4.0 13.0 0.00 0.00 0.00 29 1020.1
20260508163615 71 59 2.0 7.0 0.00 0.00 0.00 30 1020.1
20260508163111 70 78 5.0 10.0 0.00 0.00 0.00 30 1020.1
20260508162603 71 0 4.0 6.0 0.00 0.00 0.00 31 1020.1
20260508162100 70 37 3.0 9.0 0.00 0.00 0.00 31 1020.1
20260508161557 70 69 2.0 4.0 0.00 0.00 0.00 35 1019.9
20260508161055 70 104 4.0 8.0 0.00 0.00 0.00 33 1019.9
20260508160553 70 292 1.0 4.0 0.00 0.00 0.00 33 1020.2
20260508160049 69 7 2.0 5.0 0.00 0.00 0.00 33 1019.9
20260508155547 69 196 0.0 3.0 0.00 0.00 0.00 35 1020.2
20260508155043 69 175 1.0 3.0 0.00 0.00 0.00 34 1019.8
20260508154540 69 201 2.0 4.0 0.00 0.00 0.00 33 1019.9
20260508154037 68 123 4.0 7.0 0.00 0.00 0.00 36 1020.2
20260508153534 68 77 2.0 3.0 0.00 0.00 0.00 36 1019.9
20260508153030 67 112 4.0 7.0 0.00 0.00 0.00 37 1020.1
20260508152527 66 81 2.0 7.0 0.00 0.00 0.00 39 1020.1
20260508152022 66 126 5.0 8.0 0.00 0.00 0.00 38 1019.8
20260508151520 66 124 5.0 7.0 0.00 0.00 0.00 39 1019.7
20260508151016 65 132 4.0 6.0 0.00 0.00 0.00 41 1019.8
20260508150513 65 100 4.0 8.0 0.00 0.00 0.00 42 1019.7
20260508150009 64 84 4.0 10.0 0.00 0.00 0.00 44 1019.6
20260508145507 65 98 2.0 5.0 0.00 0.00 0.00 45 1019.8
20260508145003 63 158 3.0 8.0 0.00 0.00 0.00 45 1019.7
20260508144500 64 149 5.0 7.0 0.00 0.00 0.00 46 1019.7
20260508143957 63 124 3.0 7.0 0.00 0.00 0.00 47 1019.5
20260508143454 62 121 9.0 9.0 0.00 0.00 0.00 48 1019.7
20260508142950 62 163 3.0 7.0 0.00 0.00 0.00 49 1019.6
20260508142448 62 128 3.0 7.0 0.00 0.00 0.00 49 1019.6
20260508141944 62 126 6.0 9.0 0.00 0.00 0.00 48 1019.4
20260508141441 61 139 4.0 7.0 0.00 0.00 0.00 47 1019.5
20260508140939 60 110 1.0 4.0 0.00 0.00 0.00 47 1019.6
20260508140435 60 141 2.0 4.0 0.00 0.00 0.00 47 1019.4
20260508135931 60 166 2.0 4.0 0.00 0.00 0.00 47 1019.5
20260508135428 59 241 0.0 4.0 0.00 0.00 0.00 46 1019.5
20260508134924 60 140 2.0 3.0 0.00 0.00 0.00 44 1019.6
20260508134421 60 69 0.0 2.0 0.00 0.00 0.00 45 1019.3
20260508133918 61 107 2.0 2.0 0.00 0.00 0.00 44 1019.3
20260508133415 59 89 1.0 3.0 0.00 0.00 0.00 45 1019.3
20260508132912 55 22 0.0 1.0 0.00 0.00 0.00 50 1019.4
20260508132410 53 80 0.0 2.0 0.00 0.00 0.00 53 1019.1
20260508131906 53 320 0.0 2.0 0.00 0.00 0.00 53 1019.1
20260508131402 52 44 0.0 2.0 0.00 0.00 0.00 53 1019.1
20260508130859 51 49 0.0 1.0 0.00 0.00 0.00 54 1019.1
20260508130355 51 326 0.0 1.0 0.00 0.00 0.00 56 1019.0
20260508125852 51 28 0.0 2.0 0.00 0.00 0.00 56 1018.9
20260508125348 50 311 2.0 3.0 0.00 0.00 0.00 56 1018.8
20260508124846 49 339 1.0 1.0 0.00 0.00 0.00 59 1018.8
20260508124343 49 351 1.0 3.0 0.00 0.00 0.00 60 1018.8
20260508123842 49 89 0.0 2.0 0.00 0.00 0.00 59 1018.7
20260508123340 49 34 0.0 2.0 0.00 0.00 0.00 59 1018.8
20260508122835 50 50 1.0 2.0 0.00 0.00 0.00 59 1018.5
20260508122332 50 345 0.0 1.0 0.00 0.00 0.00 55 1018.8
20260508121829 50 278 2.0 3.0 0.00 0.00 0.00 57 1018.6
20260508121328 50 347 0.0 3.0 0.00 0.00 0.00 56 1018.5
20260508120825 50 52 0.0 2.0 0.00 0.00 0.00 56 1018.5
20260508120323 51 148 3.0 3.0 0.00 0.00 0.00 54 1018.6
20260508115820 51 166 1.0 3.0 0.00 0.00 0.00 54 1018.6
20260508115317 50 197 2.0 3.0 0.00 0.00 0.00 57 1018.3
20260508114814 51 112 3.0 4.0 0.00 0.00 0.00 57 1018.6
20260508114311 51 188 2.0 3.0 0.00 0.00 0.00 55 1018.5
20260508113807 51 116 1.0 4.0 0.00 0.00 0.00 56 1018.3
20260508113306 51 189 2.0 3.0 0.00 0.00 0.00 56 1018.2
20260508112802 51 264 2.0 3.0 0.00 0.00 0.00 55 1018.1
20260508112259 50 260 0.0 3.0 0.00 0.00 0.00 57 1018.1
20260508111755 49 124 0.0 2.0 0.00 0.00 0.00 59 1018.3
20260508111253 50 70 1.0 2.0 0.00 0.00 0.00 58 1018.2
20260508110750 50 23 0.0 2.0 0.00 0.00 0.00 57 1018.2
20260508110248 51 87 1.0 2.0 0.00 0.00 0.00 57 1018.2
20260508105742 50 52 0.0 2.0 0.00 0.00 0.00 57 1018.0
20260508105239 51 30 2.0 2.0 0.00 0.00 0.00 56 1018.0
20260508104736 50 348 1.0 2.0 0.00 0.00 0.00 57 1018.2
20260508104233 51 25 2.0 3.0 0.00 0.00 0.00 56 1018.0
20260508103731 51 12 2.0 3.0 0.00 0.00 0.00 56 1018.0
20260508103227 52 261 0.0 3.0 0.00 0.00 0.00 53 1017.8
20260508102724 52 294 3.0 4.0 0.00 0.00 0.00 52 1018.0
20260508102222 51 263 2.0 3.0 0.00 0.00 0.00 54 1018.0
20260508101719 52 18 2.0 2.0 0.00 0.00 0.00 53 1018.1
20260508101217 52 311 0.0 2.0 0.00 0.00 0.00 53 1018.1
20260508100714 52 255 1.0 3.0 0.00 0.00 0.00 52 1017.8
20260508100212 52 322 0.0 2.0 0.00 0.00 0.00 55 1018.0
20260508095708 52 124 1.0 2.0 0.00 0.00 0.00 54 1018.0
20260508095206 53 129 1.0 2.0 0.00 0.00 0.00 54 1017.8
20260508094702 53 202 0.0 4.0 0.00 0.00 0.00 52 1018.0
20260508094159 53 227 2.0 3.0 0.00 0.00 0.00 53 1017.9
20260508093656 52 27 2.0 3.0 0.00 0.00 0.00 56 1017.8
20260508093154 52 76 0.0 3.0 0.00 0.00 0.00 57 1017.8
20260508092651 52 184 1.0 3.0 0.00 0.00 0.00 56 1017.8
20260508092149 52 335 1.0 2.0 0.00 0.00 0.00 57 1017.9
20260508091647 52 161 3.0 4.0 0.00 0.00 0.00 57 1018.0
20260508091143 52 142 2.0 3.0 0.00 0.00 0.00 55 1017.7
20260508090641 52 130 3.0 5.0 0.00 0.00 0.00 54 1017.8
20260508090138 52 164 2.0 3.0 0.00 0.00 0.00 55 1017.7
20260508085634 51 186 1.0 2.0 0.00 0.00 0.00 57 1017.5
20260508085132 52 51 2.0 2.0 0.00 0.00 0.00 57 1017.7
20260508084628 52 76 1.0 3.0 0.00 0.00 0.00 55 1017.8
20260508084125 52 31 3.0 4.0 0.00 0.00 0.00 55 1017.9
20260508083622 53 66 0.0 3.0 0.00 0.00 0.00 51 1017.7
20260508083120 53 86 2.0 4.0 0.00 0.00 0.00 50 1017.8
20260508082615 54 14 1.0 3.0 0.00 0.00 0.00 49 1017.7
20260508082113 55 79 2.0 6.0 0.00 0.00 0.00 46 1017.7
20260508081610 56 236 2.0 6.0 0.00 0.00 0.00 45 1017.4
20260508081106 56 314 0.0 4.0 0.00 0.00 0.00 46 1017.5
20260508080604 56 212 1.0 3.0 0.00 0.00 0.00 46 1017.7
20260508075558 56 275 2.0 4.0 0.00 0.00 0.00 46 1017.5
20260508075055 56 348 1.0 4.0 0.00 0.00 0.00 45 1017.5
20260508074553 55 295 2.0 4.0 0.00 0.00 0.00 46 1017.7
20260508074049 55 272 2.0 5.0 0.00 0.00 0.00 48 1017.8
20260508073547 56 263 0.0 5.0 0.00 0.00 0.00 47 1017.8
20260508073044 56 255 3.0 5.0 0.00 0.00 0.00 47 1017.8
20260508072540 55 253 3.0 3.0 0.00 0.00 0.00 48 1017.8
20260508072037 55 25 0.0 2.0 0.00 0.00 0.00 49 1017.7
20260508071535 56 96 2.0 2.0 0.00 0.00 0.00 48 1017.7
20260508071033 56 224 0.0 2.0 0.00 0.00 0.00 46 1017.7
20260508070530 56 195 0.0 3.0 0.00 0.00 0.00 46 1017.8
20260508070028 56 314 2.0 3.0 0.00 0.00 0.00 46 1018.1
20260508065526 57 291 1.0 5.0 0.00 0.00 0.00 45 1018.0
20260508065024 57 217 3.0 5.0 0.00 0.00 0.00 44 1017.7
20260508064521 57 171 3.0 5.0 0.00 0.00 0.00 44 1017.8
20260508064019 58 197 2.0 3.0 0.00 0.00 0.00 41 1017.7
20260508063516 59 215 0.0 3.0 0.00 0.00 0.00 40 1017.5
20260508063013 59 326 3.0 4.0 0.00 0.00 0.00 40 1017.7
20260508062511 59 285 3.0 6.0 0.00 0.00 0.00 40 1017.4
20260508062007 56 2 4.0 7.0 0.00 0.00 0.00 46 1017.7
20260508061506 56 22 3.0 6.0 0.00 0.00 0.00 45 1017.5
20260508061002 58 4 3.0 4.0 0.00 0.00 0.00 43 1017.5
20260508060459 57 250 1.0 2.0 0.00 0.00 0.00 45 1017.4
20260508055955 59 359 4.0 5.0 0.00 0.00 0.00 44 1017.2
20260508055452 58 175 0.0 5.0 0.00 0.00 0.00 42 1017.4
20260508054948 58 119 1.0 3.0 0.00 0.00 0.00 42 1017.5
20260508054446 58 104 2.0 2.0 0.00 0.00 0.00 43 1017.1
20260508053942 59 32 0.0 2.0 0.00 0.00 0.00 42 1017.1
20260508053439 58 319 3.0 4.0 0.00 0.00 0.00 42 1017.3
20260508052937 59 355 3.0 3.0 0.00 0.00 0.00 43 1017.2
20260508052434 60 304 2.0 4.0 0.00 0.00 0.00 41 1017.2
20260508051930 59 290 1.0 4.0 0.00 0.00 0.00 41 1017.1
20260508051426 59 105 0.0 2.0 0.00 0.00 0.00 41 1017.0
20260508050922 60 109 4.0 5.0 0.00 0.00 0.00 39 1017.1
20260508050419 61 238 3.0 5.0 0.00 0.00 0.00 38 1017.1
20260508045915 60 284 3.0 4.0 0.00 0.00 0.00 39 1017.2
20260508045408 60 315 3.0 5.0 0.00 0.00 0.00 39 1016.9
20260508044905 61 4 0.0 4.0 0.00 0.00 0.00 39 1017.0
20260508044402 61 298 3.0 5.0 0.00 0.00 0.00 38 1016.9
20260508043857 61 350 2.0 7.0 0.00 0.00 0.00 38 1017.2
20260508043355 61 283 5.0 6.0 0.00 0.00 0.00 38 1017.2
20260508042851 61 303 3.0 4.0 0.00 0.00 0.00 38 1017.1
20260508042349 61 255 1.0 3.0 0.00 0.00 0.00 38 1017.2
20260508041845 62 316 3.0 6.0 0.00 0.00 0.00 37 1017.0
20260508041342 62 297 2.0 4.0 0.00 0.00 0.00 37 1017.2
20260508040838 62 306 3.0 5.0 0.00 0.00 0.00 37 1017.3
20260508040335 63 266 1.0 5.0 0.00 0.00 0.00 37 1017.1
20260508035832 64 284 2.0 4.0 0.00 0.00 0.00 36 1017.1
20260508035324 64 24 0.0 5.0 0.00 0.00 0.00 36 1017.0
20260508034821 64 298 3.0 5.0 0.00 0.00 0.00 36 1017.0
20260508034318 64 280 2.0 7.0 0.00 0.00 0.00 36 1016.9
20260508033815 64 262 3.0 9.0 0.00 0.00 0.00 35 1017.0
20260508033314 64 286 4.0 9.0 0.00 0.00 0.00 36 1017.0
20260508032811 65 288 4.0 8.0 0.00 0.00 0.00 35 1016.9
20260508032308 65 277 4.0 5.0 0.00 0.00 0.00 34 1017.0
20260508031804 66 283 4.0 6.0 0.00 0.00 0.00 34 1016.6
20260508031301 66 262 4.0 7.0 0.00 0.00 0.00 34 1016.6
20260508030757 66 327 2.0 3.0 0.00 0.00 0.00 34 1016.5
20260508030255 66 256 0.0 3.0 0.00 0.00 0.00 33 1016.7
20260508025751 66 326 0.0 2.0 0.00 0.00 0.00 33 1016.7
20260508025249 67 317 1.0 2.0 0.00 0.00 0.00 32 1016.6
20260508024744 67 258 2.0 3.0 0.00 0.00 0.00 30 1016.5
20260508024241 67 299 0.0 0.0 0.00 0.00 0.00 33 1016.4
20260508023738 67 309 0.0 0.0 0.00 0.00 0.00 33 1016.5
20260508023235 68 309 0.0 1.0 0.00 0.00 0.00 31 1016.4
20260508022731 69 293 0.0 0.0 0.00 0.00 0.00 29 1016.5
20260508022228 70 235 0.0 3.0 0.00 0.00 0.00 28 1016.4
20260508021724 71 129 0.0 1.0 0.00 0.00 0.00 26 1016.4
20260508021220 72 37 0.0 1.0 0.00 0.00 0.00 27 1016.3
20260508020717 73 21 1.0 2.0 0.00 0.00 0.00 26 1016.3
20260508020214 73 60 0.0 4.0 0.00 0.00 0.00 24 1016.1
20260508015712 73 91 2.0 3.0 0.00 0.00 0.00 24 1016.2
20260508015209 74 79 2.0 4.0 0.00 0.00 0.00 24 1016.4
20260508014705 74 83 1.0 2.0 0.00 0.00 0.00 24 1016.3
20260508014201 74 72 2.0 5.0 0.00 0.00 0.00 23 1016.1
20260508013658 74 96 3.0 6.0 0.00 0.00 0.00 23 1016.2
20260508013155 74 95 4.0 6.0 0.00 0.00 0.00 23 1016.3
20260508012652 74 84 3.0 6.0 0.00 0.00 0.00 23 1016.3
20260508012149 75 65 3.0 6.0 0.00 0.00 0.00 23 1016.1
20260508011648 75 154 0.0 3.0 0.00 0.00 0.00 23 1016.2
20260508011145 75 137 2.0 4.0 0.00 0.00 0.00 23 1016.4
20260508010641 74 87 4.0 7.0 0.00 0.00 0.00 24 1016.3
20260508010140 74 125 4.0 6.0 0.00 0.00 0.00 23 1016.4
20260508005636 74 114 2.0 6.0 0.00 0.00 0.00 24 1016.4
20260508005133 73 123 2.0 4.0 0.00 0.00 0.00 24 1016.3
20260508004628 73 84 2.0 3.0 0.00 0.00 0.00 24 1016.5
20260508004125 73 89 0.0 2.0 0.00 0.00 0.00 23 1016.6
20260508003622 73 92 1.0 7.0 0.00 0.00 0.00 24 1016.4
20260508003120 73 87 4.0 6.0 0.00 0.00 0.00 23 1016.5
20260508002616 73 89 2.0 4.0 0.00 0.00 0.00 23 1016.6
20260508002114 74 85 2.0 7.0 0.00 0.00 0.00 24 1016.6
20260508001609 74 87 3.0 5.0 0.00 0.00 0.00 23 1016.5
20260508001105 74 59 3.0 6.0 0.00 0.00 0.00 24 1016.6
20260508000601 75 355 2.0 2.0 0.00 0.00 0.00 24 1016.7
20260508000058 75 104 2.0 3.0 0.00 0.00 0.00 25 1017.0
20260507235555 75 68 3.0 5.0 0.00 0.00 0.00 23 1016.7
20260507235053 75 57 1.0 3.0 0.00 0.00 0.00 22 1016.7
20260507234549 75 103 2.0 11.0 0.00 0.00 0.00 23 1017.0
20260507234045 75 60 3.0 10.0 0.00 0.00 0.00 23 1016.9
20260507233541 75 30 8.0 13.0 0.00 0.00 0.00 23 1017.0
20260507233041 76 92 3.0 8.0 0.00 0.00 0.00 21 1016.9
20260507232537 76 358 4.0 9.0 0.00 0.00 0.00 23 1017.2
20260507232034 75 33 2.0 5.0 0.00 0.00 0.00 24 1017.2
20260507231530 74 15 3.0 11.0 0.00 0.00 0.00 24 1017.2
20260507231028 74 1 5.0 11.0 0.00 0.00 0.00 24 1017.3
20260507230524 75 23 5.0 13.0 0.00 0.00 0.00 24 1017.3
20260507230021 75 63 6.0 10.0 0.00 0.00 0.00 24 1017.7
20260507225516 75 61 3.0 9.0 0.00 0.00 0.00 23 1017.4
20260507225012 75 269 0.0 3.0 0.00 0.00 0.00 22 1017.4
20260507224508 75 346 9.0 12.0 0.00 0.00 0.00 23 1017.7
20260507223959 76 94 4.0 10.0 0.00 0.00 0.00 22 1017.4
20260507223455 75 24 4.0 13.0 0.00 0.00 0.00 23 1017.4
20260507222953 76 25 2.0 6.0 0.00 0.00 0.00 23 1017.5
20260507222449 76 0 5.0 11.0 0.00 0.00 0.00 22 1017.7
20260507221945 75 359 9.0 11.0 0.00 0.00 0.00 22 1017.7
20260507221436 74 350 4.0 12.0 0.00 0.00 0.00 23 1017.9
20260507220932 74 352 2.0 6.0 0.00 0.00 0.00 22 1017.8
20260507215833 75 219 1.0 4.0 0.00 0.00 0.00 23 1017.9
20260507215330 75 219 1.0 4.0 0.00 0.00 0.00 23 1017.9
20260507214827 75 275 4.0 10.0 0.00 0.00 0.00 21 1018.1
20260507214325 76 283 5.0 7.0 0.00 0.00 0.00 22 1018.1
20260507213820 77 358 4.0 8.0 0.00 0.00 0.00 22 1018.3